TimeCST,TemperatureF,Dew PointF,Humidity,Sea Level PressureIn,VisibilityMPH,Wind Direction,Wind SpeedMPH,Gust SpeedMPH,PrecipitationIn,Events,Conditions,WindDirDegrees,DateUTC
12:55 AM,28.4,24.8,86,30.30,10.0,North,8.1,-,N/A,,Partly Cloudy,10,2013-01-14 06:55:00
1:55 AM,28.4,23.0,80,30.32,10.0,North,13.8,-,N/A,,Scattered Clouds,360,2013-01-14 07:55:00
2:15 AM,26.6,23.0,86,30.32,10.0,North,10.4,-,N/A,,Mostly Cloudy,360,2013-01-14 08:15:00
2:55 AM,26.6,21.2,80,30.32,10.0,North,16.1,-,N/A,,Mostly Cloudy,10,2013-01-14 08:55:00
3:15 AM,26.6,23.0,86,30.31,10.0,North,10.4,-,N/A,,Overcast,360,2013-01-14 09:15:00
3:35 AM,26.6,21.2,80,30.33,10.0,North,11.5,-,N/A,,Overcast,10,2013-01-14 09:35:00
3:55 AM,26.6,23.0,86,30.32,10.0,North,11.5,-,N/A,,Overcast,10,2013-01-14 09:55:00
4:15 AM,26.6,21.2,80,30.32,10.0,North,12.7,-,N/A,,Overcast,10,2013-01-14 10:15:00
4:35 AM,26.6,21.2,80,30.31,10.0,North,13.8,-,N/A,,Overcast,360,2013-01-14 10:35:00
4:55 AM,26.6,21.2,80,30.33,10.0,North,11.5,-,N/A,,Overcast,10,2013-01-14 10:55:00
5:55 AM,26.6,21.2,80,30.31,10.0,North,10.4,-,N/A,,Overcast,10,2013-01-14 11:55:00
6:55 AM,24.8,21.2,86,30.29,10.0,NNE,11.5,-,N/A,,Overcast,20,2013-01-14 12:55:00
7:55 AM,24.8,21.2,86,30.32,10.0,North,11.5,-,N/A,,Mostly Cloudy,10,2013-01-14 13:55:00
8:55 AM,26.6,21.2,80,30.37,10.0,North,9.2,-,N/A,,Overcast,360,2013-01-14 14:55:00
9:55 AM,26.6,21.2,80,30.36,10.0,North,10.4,-,N/A,,Overcast,10,2013-01-14 15:55:00
10:55 AM,28.4,21.2,74,30.43,10.0,WNW,9.2,-,N/A,,Overcast,290,2013-01-14 16:55:00
11:55 AM,28.4,21.2,74,30.38,10.0,NNW,13.8,-,N/A,,Overcast,340,2013-01-14 17:55:00
12:55 PM,26.6,21.2,80,30.35,10.0,North,16.1,-,N/A,,Overcast,360,2013-01-14 18:55:00
1:55 PM,26.6,21.2,80,30.31,3.0,NNE,5.8,-,N/A,Snow,Light Snow,20,2013-01-14 19:55:00
2:55 PM,28.4,24.8,86,30.32,10.0,North,9.2,-,N/A,,Mostly Cloudy,360,2013-01-14 20:55:00
3:55 PM,28.4,23.0,80,30.34,10.0,North,6.9,-,N/A,,Mostly Cloudy,360,2013-01-14 21:55:00
4:55 PM,28.4,21.2,74,30.33,10.0,North,6.9,-,N/A,,Mostly Cloudy,10,2013-01-14 22:55:00
5:55 PM,28.4,21.2,74,30.34,10.0,North,5.8,-,N/A,,Mostly Cloudy,10,2013-01-14 23:55:00
6:55 PM,26.6,21.2,80,30.32,10.0,North,6.9,-,N/A,,Mostly Cloudy,10,2013-01-15 00:55:00
7:55 PM,26.6,21.2,80,30.30,10.0,North,8.1,-,N/A,,Mostly Cloudy,10,2013-01-15 01:55:00
8:55 PM,26.6,21.2,80,30.30,10.0,North,6.9,-,N/A,,Mostly Cloudy,10,2013-01-15 02:55:00
9:55 PM,26.6,21.2,80,30.28,10.0,North,8.1,-,N/A,,Mostly Cloudy,10,2013-01-15 03:55:00
10:55 PM,26.6,21.2,80,30.28,10.0,North,11.5,-,N/A,,Mostly Cloudy,360,2013-01-15 04:55:00
11:55 PM,26.6,21.2,80,30.29,10.0,North,9.2,-,N/A,,Scattered Clouds,10,2013-01-15 05:55:00